Starlink 2699

operational
NORAD ID: 48433 Int'l Des: 2021-040 Owner: SPXS Country: US Constellation: starlink
LEOCIRCULARSTARLINK_TYPE

Über Starlink 2699

Beschreibung wird geladen...

Live-Position

3D-Globus wird geladen...

Nächste Überflüge

Höhenverlauf

Altitude vs Time

uPlot chart will show altitude changes over time

Zweizeiliger Elementsatz

1 48433U 21040F 25299.77776273 .00002841 00000-0 20953-3 0 9999
2 48433 53.0539 33.0520 0001432 77.6440 282.4709 15.06396426246859
Epoch: 26. Okt. 2025 • Age: 11 hours

Aktueller Status

Höhe 566.4 km
Geschwindigkeit 7.58 km/s
Subsatellitenpunkt -52.45°S, 171.19°E
Startdatum 9. Mai 2021
Alter 4.4 years
Typ internet

Technische Details

Klassifizierung Payload
Masse 260.00 kg
Trockenmasse 248.00 kg
Gesamtmasse 260.00 kg
Länge 0.20 m
Durchmesser 2.80 m
Spannweite 9.00 m
Form Box + pan
Hersteller SPXS
Bus-Typ Starlink
Phasenstatus In Orbit
Besitzer/Staat SPXS/US

Große Konstellationen

Loading constellations...